| time (UTC) | temp F | wind direction | speed MPH | gust MPH | rain 1hr in | rain 24hr in | rain mn in | humidity % | barometer mb |
| 20260506143517 | 63 | 144 | 5.0 | 9.0 | 0.00 | 0.00 | 0.00 | 77 | 1009.6 |
| 20260506142517 | 64 | 170 | 3.0 | 7.0 | 0.00 | 0.00 | 0.00 | 76 | 1009.6 |
| 20260506141521 | 64 | 150 | 2.0 | 5.0 | 0.00 | 0.00 | 0.00 | 76 | 1009.6 |
| 20260506140521 | 63 | 149 | 3.0 | 8.0 | 0.00 | 0.00 | 0.00 | 77 | 1009.7 |
| 20260506135518 | 63 | 175 | 3.0 | 9.0 | 0.00 | 0.00 | 0.00 | 78 | 1009.8 |
| 20260506134519 | 62 | 157 | 4.0 | 9.0 | 0.00 | 0.00 | 0.00 | 78 | 1009.8 |
| 20260506133539 | 62 | 166 | 3.0 | 7.0 | 0.00 | 0.00 | 0.00 | 79 | 1009.6 |
| 20260506132518 | 62 | 158 | 3.0 | 9.0 | 0.00 | 0.00 | 0.00 | 79 | 1009.5 |
| 20260506131519 | 62 | 188 | 1.0 | 7.0 | 0.00 | 0.00 | 0.00 | 80 | 1009.5 |
| 20260506130519 | 61 | 150 | 3.0 | 8.0 | 0.00 | 0.00 | 0.00 | 81 | 1009.6 |
| 20260506125519 | 61 | 158 | 4.0 | 11.0 | 0.00 | 0.00 | 0.00 | 81 | 1009.7 |
| 20260506124519 | 61 | 159 | 5.0 | 11.0 | 0.00 | 0.00 | 0.00 | 81 | 1009.8 |
| 20260506123523 | 61 | 159 | 3.0 | 6.0 | 0.00 | 0.00 | 0.00 | 81 | 1010.0 |
| 20260506122522 | 61 | 162 | 4.0 | 8.0 | 0.00 | 0.00 | 0.00 | 82 | 1010.2 |
| 20260506121557 | 60 | 167 | 4.0 | 8.0 | 0.00 | 0.00 | 0.00 | 83 | 1010.1 |
| 20260506120523 | 60 | 139 | 3.0 | 7.0 | 0.00 | 0.00 | 0.00 | 84 | 1010.0 |
| 20260506115525 | 59 | 169 | 3.0 | 5.0 | 0.00 | 0.00 | 0.00 | 85 | 1010.1 |
| 20260506114544 | 59 | 172 | 2.0 | 6.0 | 0.00 | 0.00 | 0.00 | 86 | 1010.0 |
| 20260506113524 | 58 | 164 | 5.0 | 9.0 | 0.00 | 0.00 | 0.00 | 87 | 1010.1 |
| 20260506112518 | 58 | 159 | 3.0 | 7.0 | 0.00 | 0.00 | 0.00 | 88 | 1010.1 |
| 20260506111518 | 58 | 162 | 3.0 | 7.0 | 0.00 | 0.00 | 0.00 | 88 | 1010.2 |
| 20260506110524 | 57 | 153 | 5.0 | 8.0 | 0.00 | 0.00 | 0.00 | 89 | 1010.3 |
| 20260506105541 | 57 | 162 | 3.0 | 5.0 | 0.00 | 0.00 | 0.00 | 89 | 1010.2 |
| 20260506104521 | 56 | 166 | 2.0 | 3.0 | 0.00 | 0.00 | 0.00 | 90 | 1010.1 |
| 20260506103521 | 56 | 155 | 2.0 | 4.0 | 0.00 | 0.00 | 0.00 | 90 | 1010.2 |
| 20260506102521 | 56 | 178 | 2.0 | 3.0 | 0.00 | 0.00 | 0.00 | 90 | 1010.2 |
| 20260506101522 | 56 | 209 | 1.0 | 2.0 | 0.00 | 0.00 | 0.00 | 89 | 1010.1 |
| 20260506100602 | 56 | 187 | 0.0 | 1.0 | 0.00 | 0.00 | 0.00 | 89 | 1010.1 |
| 20260506095522 | 56 | 219 | 1.0 | 2.0 | 0.00 | 0.00 | 0.00 | 89 | 1010.1 |
| 20260506094522 | 56 | 168 | 1.0 | 2.0 | 0.00 | 0.00 | 0.00 | 88 | 1010.0 |
| 20260506093542 | 57 | 183 | 1.0 | 3.0 | 0.00 | 0.00 | 0.00 | 88 | 1009.9 |
| 20260506092523 | 57 | 173 | 2.0 | 4.0 | 0.00 | 0.00 | 0.00 | 88 | 1010.0 |
| 20260506091520 | 57 | 163 | 3.0 | 6.0 | 0.00 | 0.00 | 0.00 | 88 | 1010.1 |
| 20260506090523 | 57 | 174 | 2.0 | 4.0 | 0.00 | 0.00 | 0.00 | 87 | 1010.1 |
| 20260506085520 | 57 | 207 | 2.0 | 5.0 | 0.00 | 0.00 | 0.00 | 87 | 1010.2 |
| 20260506084520 | 57 | 193 | 2.0 | 5.0 | 0.00 | 0.00 | 0.00 | 87 | 1010.2 |
| 20260506083520 | 57 | 204 | 2.0 | 6.0 | 0.00 | 0.00 | 0.00 | 87 | 1010.3 |
| 20260506082521 | 57 | 160 | 2.0 | 5.0 | 0.00 | 0.00 | 0.00 | 86 | 1010.3 |
| 20260506081524 | 57 | 166 | 3.0 | 4.0 | 0.00 | 0.00 | 0.00 | 86 | 1010.2 |
| 20260506080544 | 57 | 188 | 1.0 | 4.0 | 0.00 | 0.00 | 0.00 | 86 | 1010.2 |
| 20260506073524 | 58 | 200 | 2.0 | 5.0 | 0.00 | 0.00 | 0.00 | 85 | 1010.3 |
| 20260506072521 | 58 | 187 | 2.0 | 6.0 | 0.00 | 0.00 | 0.00 | 84 | 1010.4 |
| 20260506071619 | 58 | 175 | 2.0 | 5.0 | 0.00 | 0.00 | 0.00 | 84 | 1010.4 |
| 20260506070539 | 58 | 162 | 2.0 | 9.0 | 0.00 | 0.00 | 0.00 | 84 | 1010.3 |
| 20260506062517 | 58 | 185 | 2.0 | 5.0 | 0.00 | 0.00 | 0.00 | 83 | 1010.2 |
| 20260506061520 | 58 | 185 | 2.0 | 6.0 | 0.00 | 0.00 | 0.00 | 82 | 1010.3 |
| 20260506060520 | 59 | 202 | 1.0 | 5.0 | 0.00 | 0.00 | 0.00 | 82 | 1010.3 |
| 20260506050519 | 60 | 211 | 1.0 | 3.0 | 0.00 | 0.00 | 0.00 | 79 | 1010.6 |
| 20260506044519 | 61 | 185 | 1.0 | 4.0 | 0.00 | 0.00 | 0.00 | 77 | 1010.7 |
| 20260506043519 | 62 | 201 | 1.0 | 3.0 | 0.00 | 0.00 | 0.00 | 76 | 1010.7 |
| 20260506042519 | 62 | 174 | 3.0 | 10.0 | 0.00 | 0.00 | 0.00 | 75 | 1010.7 |
| 20260506041519 | 62 | 148 | 2.0 | 6.0 | 0.00 | 0.00 | 0.00 | 75 | 1010.7 |
| 20260506040519 | 62 | 187 | 2.0 | 8.0 | 0.00 | 0.00 | 0.00 | 74 | 1010.7 |
| 20260506035520 | 62 | 167 | 3.0 | 6.0 | 0.00 | 0.00 | 0.00 | 74 | 1010.7 |
| 20260506034517 | 62 | 168 | 2.0 | 6.0 | 0.00 | 0.00 | 0.00 | 74 | 1010.7 |
| 20260506033520 | 63 | 163 | 1.0 | 3.0 | 0.00 | 0.00 | 0.00 | 73 | 1010.7 |
| 20260506032521 | 63 | 165 | 3.0 | 9.0 | 0.00 | 0.00 | 0.00 | 72 | 1010.7 |
| 20260506031521 | 63 | 164 | 3.0 | 7.0 | 0.00 | 0.00 | 0.00 | 71 | 1010.6 |
| 20260506030518 | 63 | 163 | 2.0 | 6.0 | 0.00 | 0.00 | 0.00 | 70 | 1010.7 |
| 20260506025518 | 63 | 175 | 2.0 | 7.0 | 0.00 | 0.00 | 0.00 | 70 | 1010.7 |
| 20260506024521 | 63 | 147 | 3.0 | 8.0 | 0.00 | 0.00 | 0.00 | 70 | 1010.7 |
| 20260506023518 | 63 | 154 | 3.0 | 7.0 | 0.00 | 0.00 | 0.00 | 69 | 1010.6 |
| 20260506022539 | 63 | 162 | 3.0 | 8.0 | 0.00 | 0.00 | 0.00 | 69 | 1010.6 |
| 20260506021518 | 63 | 165 | 3.0 | 7.0 | 0.00 | 0.00 | 0.00 | 69 | 1010.5 |
| 20260506020519 | 63 | 185 | 2.0 | 5.0 | 0.00 | 0.00 | 0.00 | 69 | 1010.4 |
| 20260506015519 | 63 | 189 | 2.0 | 4.0 | 0.00 | 0.00 | 0.00 | 69 | 1010.4 |
| 20260506014519 | 63 | 183 | 1.0 | 3.0 | 0.00 | 0.00 | 0.00 | 69 | 1010.3 |
| 20260506013519 | 63 | 160 | 2.0 | 8.0 | 0.00 | 0.00 | 0.00 | 69 | 1010.2 |
| 20260506012520 | 63 | 155 | 2.0 | 7.0 | 0.00 | 0.00 | 0.00 | 69 | 1010.1 |
| 20260506011520 | 63 | 157 | 3.0 | 6.0 | 0.00 | 0.00 | 0.00 | 68 | 1009.9 |
| 20260506010520 | 63 | 169 | 2.0 | 8.0 | 0.00 | 0.00 | 0.00 | 67 | 1009.9 |
| 20260506005525 | 64 | 173 | 3.0 | 10.0 | 0.00 | 0.00 | 0.00 | 67 | 1009.7 |
| 20260506004520 | 64 | 186 | 2.0 | 7.0 | 0.00 | 0.00 | 0.00 | 66 | 1009.6 |
| 20260506003520 | 64 | 155 | 3.0 | 9.0 | 0.00 | 0.00 | 0.00 | 65 | 1009.4 |
| 20260506002518 | 64 | 179 | 2.0 | 7.0 | 0.00 | 0.00 | 0.00 | 65 | 1009.4 |
| 20260506001518 | 64 | 159 | 3.0 | 7.0 | 0.00 | 0.00 | 0.00 | 65 | 1009.2 |
| 20260506000538 | 64 | 155 | 3.0 | 7.0 | 0.00 | 0.00 | 0.00 | 65 | 1009.2 |
| 20260505235521 | 65 | 174 | 1.0 | 4.0 | 0.00 | 0.00 | 0.00 | 65 | 1009.1 |
| 20260505234519 | 65 | 186 | 2.0 | 5.0 | 0.00 | 0.00 | 0.00 | 64 | 1009.0 |
| 20260505233539 | 65 | 173 | 3.0 | 9.0 | 0.00 | 0.00 | 0.00 | 64 | 1008.9 |
| 20260505232519 | 66 | 160 | 4.0 | 8.0 | 0.00 | 0.00 | 0.00 | 63 | 1008.8 |
| 20260505231539 | 66 | 162 | 4.0 | 11.0 | 0.00 | 0.00 | 0.00 | 63 | 1008.7 |
| 20260505230517 | 67 | 154 | 7.0 | 15.0 | 0.00 | 0.00 | 0.00 | 62 | 1008.4 |
| 20260505225519 | 67 | 157 | 4.0 | 10.0 | 0.00 | 0.00 | 0.00 | 62 | 1008.4 |
| 20260505224519 | 67 | 154 | 4.0 | 10.0 | 0.00 | 0.00 | 0.00 | 62 | 1008.4 |
| 20260505223519 | 68 | 173 | 3.0 | 9.0 | 0.00 | 0.00 | 0.00 | 61 | 1008.5 |
| 20260505222517 | 68 | 164 | 4.0 | 12.0 | 0.00 | 0.00 | 0.00 | 61 | 1008.5 |
| 20260505221518 | 68 | 160 | 5.0 | 9.0 | 0.00 | 0.00 | 0.00 | 60 | 1008.4 |
| 20260505220517 | 69 | 176 | 4.0 | 9.0 | 0.00 | 0.00 | 0.00 | 60 | 1008.4 |
| 20260505215520 | 69 | 167 | 5.0 | 11.0 | 0.00 | 0.00 | 0.00 | 61 | 1008.3 |
| 20260505214538 | 69 | 189 | 3.0 | 8.0 | 0.00 | 0.00 | 0.00 | 61 | 1008.3 |
| 20260505213518 | 69 | 188 | 3.0 | 10.0 | 0.00 | 0.00 | 0.00 | 61 | 1008.2 |
| 20260505212518 | 69 | 179 | 4.0 | 9.0 | 0.00 | 0.00 | 0.00 | 61 | 1008.2 |
| 20260505211518 | 69 | 167 | 5.0 | 9.0 | 0.00 | 0.00 | 0.00 | 61 | 1008.1 |
| 20260505210518 | 69 | 163 | 5.0 | 9.0 | 0.00 | 0.00 | 0.00 | 61 | 1008.2 |
| 20260505205519 | 69 | 183 | 3.0 | 7.0 | 0.00 | 0.00 | 0.00 | 62 | 1008.1 |
| 20260505204544 | 69 | 174 | 4.0 | 9.0 | 0.00 | 0.00 | 0.00 | 62 | 1008.1 |
| 20260505203519 | 69 | 165 | 6.0 | 10.0 | 0.00 | 0.00 | 0.00 | 61 | 1008.1 |
| 20260505202519 | 69 | 167 | 4.0 | 9.0 | 0.00 | 0.00 | 0.00 | 61 | 1008.1 |
| 20260505201519 | 70 | 172 | 4.0 | 11.0 | 0.00 | 0.00 | 0.00 | 60 | 1008.2 |
| 20260505200519 | 70 | 175 | 3.0 | 8.0 | 0.00 | 0.00 | 0.00 | 60 | 1008.4 |
| 20260505195600 | 70 | 172 | 5.0 | 9.0 | 0.00 | 0.00 | 0.00 | 60 | 1008.4 |
| 20260505194520 | 70 | 176 | 5.0 | 11.0 | 0.00 | 0.00 | 0.00 | 60 | 1008.4 |
| 20260505193520 | 71 | 173 | 5.0 | 10.0 | 0.00 | 0.00 | 0.00 | 60 | 1008.5 |
| 20260505192520 | 71 | 168 | 5.0 | 9.0 | 0.00 | 0.00 | 0.00 | 60 | 1008.6 |
| 20260505191517 | 70 | 165 | 5.0 | 12.0 | 0.00 | 0.00 | 0.00 | 61 | 1008.8 |
| 20260505190520 | 70 | 173 | 5.0 | 10.0 | 0.00 | 0.00 | 0.00 | 61 | 1008.9 |
| 20260505185520 | 70 | 167 | 5.0 | 10.0 | 0.00 | 0.00 | 0.00 | 61 | 1009.0 |
| 20260505184520 | 71 | 187 | 4.0 | 10.0 | 0.00 | 0.00 | 0.00 | 59 | 1009.1 |
| 20260505183520 | 71 | 176 | 3.0 | 8.0 | 0.00 | 0.00 | 0.00 | 60 | 1009.0 |
| 20260505182518 | 70 | 180 | 4.0 | 11.0 | 0.00 | 0.00 | 0.00 | 62 | 1009.1 |
| 20260505181518 | 70 | 175 | 5.0 | 10.0 | 0.00 | 0.00 | 0.00 | 61 | 1009.1 |
| 20260505180521 | 71 | 182 | 6.0 | 12.0 | 0.00 | 0.00 | 0.00 | 59 | 1009.1 |
| 20260505175518 | 72 | 193 | 4.0 | 8.0 | 0.00 | 0.00 | 0.00 | 57 | 1009.0 |
| 20260505174519 | 71 | 166 | 6.0 | 10.0 | 0.00 | 0.00 | 0.00 | 58 | 1009.2 |
| 20260505173519 | 71 | 174 | 4.0 | 10.0 | 0.00 | 0.00 | 0.00 | 59 | 1009.3 |
| 20260505172519 | 71 | 157 | 4.0 | 9.0 | 0.00 | 0.00 | 0.00 | 59 | 1009.4 |
| 20260505171519 | 71 | 155 | 5.0 | 9.0 | 0.00 | 0.00 | 0.00 | 59 | 1009.3 |
| 20260505170519 | 71 | 180 | 4.0 | 9.0 | 0.00 | 0.00 | 0.00 | 59 | 1009.3 |
| 20260505165520 | 71 | 177 | 2.0 | 8.0 | 0.00 | 0.00 | 0.00 | 60 | 1009.3 |
| 20260505164520 | 71 | 156 | 4.0 | 9.0 | 0.00 | 0.00 | 0.00 | 60 | 1009.6 |
| 20260505163539 | 70 | 162 | 3.0 | 9.0 | 0.00 | 0.00 | 0.00 | 60 | 1009.8 |
| 20260505162520 | 70 | 167 | 4.0 | 10.0 | 0.00 | 0.00 | 0.00 | 61 | 1009.9 |
| 20260505161517 | 70 | 182 | 2.0 | 5.0 | 0.00 | 0.00 | 0.00 | 61 | 1010.1 |
| 20260505160520 | 69 | 179 | 5.0 | 10.0 | 0.00 | 0.00 | 0.00 | 62 | 1010.1 |
| 20260505152518 | 68 | 163 | 3.0 | 8.0 | 0.00 | 0.00 | 0.00 | 62 | 1010.6 |
| 20260505151518 | 68 | 154 | 4.0 | 10.0 | 0.00 | 0.00 | 0.00 | 63 | 1010.7 |
| 20260505150518 | 67 | 166 | 3.0 | 10.0 | 0.00 | 0.00 | 0.00 | 64 | 1010.7 |